Dewpoint
57 57 58 58 58 58 58 58 58 59 59 59 60 61 61 62 61 52 20 46 67 77 75 64 61 58 60 55 55 51 44 44 45 43 49 50 50 51 52 52 50 53 50 54 56
57 57 57 57 58 58 59 59 59 59 59 59 60 61 61 62 45 17 57 73 77 77 62 57 53 56 52 52 51 42 41 44 47 46 49 48 48 50 51 51 53 52 54 55 56
56 57 57 57 57 58 58 59 59 58 58 58 59 60 61 60 28 19 73 75 76 74 55 53 50 50 44 45 48 44 44 46 48 48 49 48 48 49 49 49 51 53 55 55 56
56 56 57 57 57 57 58 58 58 58 58 58 59 60 61 48 19 43 75 77 75 61 53 47 46 46 43 40 48 43 45 47 50 51 49 48 49 48 47 45 50 52 56 57 58
56 56 57 57 57 57 58 58 58 57 58 59 59 60 52 20 6 54 77 75 61 55 45 37 41 45 42 45 45 43 45 47 50 50 50 49 49 48 51 50 51 52 56 56 55
56 57 57 57 57 57 57 57 57 57 58 59 60 60 40 16 35 53 61 64 57 50 38 34 40 46 46 46 46 46 46 48 49 50 50 49 50 49 53 52 52 53 54 55 56
57 57 57 57 56 57 57 57 56 57 59 61 61 56 32 20 45 56 59 56 55 45 29 31 37 38 47 46 49 47 46 47 48 49 50 50 50 49 53 54 53 53 55 56 57
56 56 56 56 57 56 56 56 56 59 62 60 60 49 28 31 40 48 52 54 52 46 35 29 37 42 47 48 47 47 47 46 48 49 50 49 48 50 53 54 53 54 55 56 55
56 56 56 56 56 55 55 55 57 62 60 61 53 39 27 46 33 32 41 33 39 35 34 38 42 43 46 43 42 44 40 43 47 48 49 48 48 50 53 53 54 55 54 55 55
55 55 55 55 55 54 54 55 58 58 59 56 50 40 34 26 30 29 39 23 21 25 21 25 35 37 40 39 38 40 39 42 42 46 48 47 47 51 52 52 54 55 54 55 54
55 55 55 54 54 53 51 45 42 40 41 33 34 31 28 35 37 28 30 28 15 17 21 24 29 33 34 38 34 38 36 38 42 44 46 47 46 51 52 52 52 53 53 52 53
55 54 54 54 53 53 49 37 37 36 33 34 34 35 35 35 29 24 23 19 18 17 17 22 26 30 33 35 34 34 34 34 39 44 46 45 47 49 52 52 52 52 52 50 52
54 54 53 53 53 43 41 37 31 37 35 31 33 30 29 33 25 20 18 17 16 18 15 23 24 25 29 33 33 33 32 30 35 45 46 46 45 48 52 53 53 52 51 49 51
54 53 53 52 43 33 38 40 32 38 30 30 29 31 31 30 25 28 15 12 12 13 16 17 21 20 26 28 31 30 31 29 33 38 36 42 35 47 49 52 53 52 52 49 49
54 53 52 51 44 26 34 29 39 39 18 29 30 34 30 25 24 28 17 15 10 8 12 18 15 16 23 26 29 30 32 31 31 28 32 38 36 41 47 50 52 52 52 50 49
53 52 52 48 45 34 32 35 40 28 16 26 28 26 25 24 19 26 18 19 19 14 11 9 14 14 17 19 25 29 30 32 30 25 23 27 33 32 42 45 47 51 52 52 50
51 51 50 44 26 36 35 39 29 14 24 26 25 24 18 19 19 20 23 17 15 16 16 10 10 10 12 16 26 27 24 26 25 24 22 30 33 32 36 38 40 42 50 52 52
50 50 50 44 44 41 35 34 25 11 24 30 27 25 20 19 19 18 19 19 19 16 11 12 5 8 11 10 15 22 22 24 26 18 19 32 28 30 35 35 37 41 45 51 52
50 39 46 43 46 42 37 23 17 18 30 28 26 26 25 18 17 19 19 14 17 19 16 10 10 6 8 11 12 21 25 25 22 20 19 17 26 27 27 30 38 42 45 48 52
44 36 43 43 42 38 30 23 22 27 32 27 27 25 25 22 20 17 19 17 16 18 16 16 14 10 4 10 16 15 23 21 23 25 23 17 22 19 25 22 18 29 44 47 51
41 27 43 42 44 31 21 18 24 28 33 27 27 26 24 22 18 17 19 19 18 17 18 15 14 14 11 10 6 12 16 21 20 22 21 18 18 14 18 18 21 27 43 48 50
39 30 38 43 34 26 16 18 34 25 29 27 26 25 26 23 24 21 21 23 16 18 19 19 14 14 9 7 4 7 9 12 19 24 19 18 16 11 13 13 13 21 30 49 51
39 34 36 42 32 33 35 30 28 27 25 24 26 26 27 25 27 25 24 27 23 28 28 21 16 13 11 6 9 9 9 6 10 11 19 15 13 15 14 14 15 20 33 52 53
39 32 37 42 42 38 38 36 35 35 33 32 28 31 30 28 28 29 27 35 37 31 51 33 15 16 11 12 8 11 9 10 4 7 10 11 15 15 15 16 17 27 39 51 55
41 37 41 32 38 35 37 37 36 34 35 34 29 26 30 30 28 28 30 36 39 44 27 15 17 19 15 8 4 7 7 8 10 11 11 13 15 15 16 17 23 31 42 51 56
40 40 39 36 35 34 33 35 34 33 36 32 32 31 33 34 31 29 28 32 34 32 24 16 23 23 19 11 10 9 8 9 11 11 14 12 12 16 28 34 33 35 42 50 56
43 44 41 36 32 31 30 35 35 38 37 36 35 35 34 36 39 38 37 37 37 37 32 18 20 23 21 17 17 15 15 15 16 16 14 12 16 26 30 29 33 37 45 47 55
Lifted_Index
15 15 14 14 14 14 14 14 14 13 13 12 12 12 11 11 9 7 6 3 -1 -4 -4 -3 -2 -1 -1 -1 -1 0 0 0 1 1 1 1 1 1 1 0 -0 -0 -1 -1 -0
15 15 15 14 14 14 14 14 14 13 13 12 12 12 11 10 9 7 5 2 -1 -3 -3 -2 -1 -1 -1 -1 -0 0 0 1 1 1 1 1 1 1 1 0 -0 -0 -0 -0 -0
16 16 15 15 14 14 14 14 14 13 13 12 12 11 11 9 7 6 3 0 -2 -2 -1 -0 -0 -0 -0 -0 -0 -0 0 0 0 0 1 1 1 1 1 1 0 -0 -0 -0 -0
17 17 16 16 15 14 14 14 14 14 14 13 12 11 10 8 6 4 0 -2 -1 -0 1 1 0 -0 -0 -0 -0 -0 -0 -0 -1 -0 0 1 1 1 1 1 0 -0 -0 -1 -1
17 17 17 16 16 15 14 14 14 14 13 13 12 11 9 8 6 3 -0 -2 -0 1 3 3 1 -0 -0 -0 -0 -0 -0 -1 -1 -1 -1 -0 0 0 0 0 0 0 -0 -1 -1
17 17 17 17 16 15 15 14 13 13 12 12 11 11 9 8 7 4 1 -0 1 3 4 4 2 0 -1 -1 -1 -1 -1 -1 -1 -1 -1 -1 -0 -0 -1 -0 0 0 -0 -1 -1
17 17 17 17 16 16 15 14 13 12 11 11 11 10 9 9 7 4 2 1 2 4 6 5 3 1 -1 -1 -1 -1 -1 -2 -2 -1 -1 -1 -1 -1 -1 -1 -0 -0 -0 -1 -1
17 17 17 17 16 15 15 13 12 11 11 11 10 9 9 10 9 6 4 4 4 5 6 6 4 1 -1 -1 -2 -2 -2 -2 -2 -2 -1 -2 -2 -2 -1 -1 -1 -1 -0 -0 -0
17 17 17 17 16 15 14 13 11 10 10 9 9 9 9 10 10 8 7 7 7 7 7 6 4 1 -0 -1 -2 -2 -2 -2 -2 -2 -2 -2 -2 -2 -2 -2 -2 -1 -1 -0 -0
17 17 17 17 16 15 13 11 10 9 9 8 8 8 9 9 9 9 9 8 8 7 6 5 4 2 0 -1 -1 -1 -1 -1 -2 -2 -2 -2 -2 -2 -2 -2 -2 -2 -1 -1 -0
17 17 17 16 16 14 12 10 9 9 8 8 8 8 9 8 9 9 9 8 8 7 5 5 3 2 1 1 0 -0 -0 -0 -1 -1 -2 -2 -2 -2 -2 -2 -3 -2 -2 -1 -0
15 16 16 16 15 13 10 9 9 9 8 8 8 8 8 8 8 8 8 8 7 6 5 4 3 2 2 2 1 1 0 0 -0 -1 -1 -2 -2 -3 -3 -3 -3 -2 -1 -0 -0
13 14 15 15 14 12 10 9 9 8 8 7 7 8 8 8 8 8 8 7 6 5 5 4 3 3 3 3 2 1 1 1 1 -0 -1 -1 -2 -3 -3 -3 -3 -2 -1 -0 0
11 12 14 14 13 11 9 8 8 7 6 6 6 7 7 7 7 7 7 6 6 5 5 4 3 3 4 3 2 1 1 2 2 0 -0 -1 -1 -2 -3 -3 -3 -2 -1 -1 0
11 12 13 13 12 11 10 9 8 6 4 5 6 6 6 7 7 7 7 6 5 5 4 4 4 4 3 3 2 2 2 2 2 1 0 -0 -1 -2 -2 -3 -3 -2 -2 -1 -0
10 11 12 12 12 12 11 9 6 4 4 4 5 5 6 6 6 6 6 6 5 4 4 4 4 4 4 3 3 3 2 2 2 1 0 0 -0 -1 -2 -2 -2 -2 -2 -1 -1
11 11 12 12 12 12 11 8 5 3 4 4 5 5 5 5 5 5 5 5 4 4 3 3 4 4 4 3 3 3 2 1 0 -0 -0 0 0 -0 -0 -0 -0 -1 -1 -1 -1
11 11 11 11 12 11 9 6 4 4 4 4 4 4 4 4 4 4 4 4 4 3 3 3 3 4 4 3 3 2 1 0 -1 -1 -1 -0 0 -0 0 1 1 0 -1 -1 -1
11 11 11 11 12 11 8 5 4 4 4 4 4 4 3 3 4 4 3 3 3 4 3 3 3 3 4 3 3 2 1 0 -0 -1 -1 -0 -0 0 0 1 1 0 -0 -1 -1
11 10 10 11 11 9 7 5 5 5 5 4 3 3 3 3 3 3 2 2 3 3 3 3 3 3 4 4 3 3 2 1 0 -0 -1 -1 -1 -0 0 1 1 1 -0 -1 -1
10 10 10 10 10 8 7 6 6 6 5 4 4 3 3 2 2 1 1 2 2 3 3 3 2 3 3 3 3 2 2 1 -0 -1 -1 -1 -1 -0 0 1 1 1 0 -1 -1
10 10 10 9 8 7 7 7 7 6 6 5 4 4 3 2 2 1 1 1 2 2 2 2 1 1 2 3 3 2 1 1 -0 -1 -1 -1 -1 -0 0 1 1 1 1 -1 -2
10 9 9 8 7 6 6 6 6 6 6 6 5 4 4 3 2 1 1 1 1 1 1 1 1 0 0 2 2 2 1 0 -0 -1 -1 -1 -1 -0 0 1 1 1 1 -1 -2
8 8 7 7 6 6 6 5 5 5 5 5 5 5 4 3 2 1 1 0 -0 0 1 1 0 -1 -0 0 1 1 1 0 -0 -1 -1 -1 -1 -1 -0 -0 1 1 0 -1 -2
7 6 6 6 5 6 5 5 5 4 5 5 5 5 4 3 2 1 1 -0 -1 -0 1 0 -0 -1 -1 -0 -0 -0 0 -0 -0 -1 -1 -1 -1 -1 -1 -0 0 1 0 -1 -3
7 6 6 6 5 5 5 5 4 4 4 4 5 5 4 3 2 2 1 0 -1 -0 0 0 -0 -0 -0 -0 -0 -0 -1 -1 -1 -1 -1 -1 -1 -0 -0 -0 0 1 0 -1 -2
8 7 7 6 5 5 5 4 4 4 4 4 5 5 4 3 3 2 2 1 -0 -1 0 0 0 -0 -0 -0 -0 -1 -1 -1 -1 -1 -1 -1 -1 -0 -0 0 0 1 0 -1 -2